FW1654 Weather Reports


time (UTC)temp
C
wind
direction
speed
KPH
gust
KPH
rain 1hr
cm
rain 24hr
cm
rain mn
cm
humidity
%
barometer
mb
20260903214234 36 292 3.2 6.4 0.00 0.00 0.00 47 1019.5
20260903213733 36 296 3.2 4.8 0.00 0.00 0.00 47 1019.5
20260903213233 36 333 3.2 8.0 0.00 0.00 0.00 47 1019.5
20260903212952 36 218 3.2 8.0 0.00 0.00 0.00 44 1019.5
20260903212231 36 248 3.2 6.4 0.00 0.00 0.00 45 1019.6
20260903211730 36 305 3.2 8.0 0.00 0.00 0.00 44 1019.6
20260903211232 37 15 3.2 8.0 0.00 0.00 0.00 44 1019.8
20260903210952 36 192 3.2 6.4 0.00 0.00 0.00 45 1019.8
20260903210441 36 129 3.2 6.4 0.00 0.00 0.00 46 1019.8
20260903205715 36 200 3.2 8.0 0.00 0.00 0.00 46 1020.0
20260903205436 36 207 3.2 8.0 0.00 0.00 0.00 47 1020.0
20260903204716 36 63 3.2 9.7 0.00 0.00 0.00 46 1020.0
20260903204218 36 186 3.2 9.7 0.00 0.00 0.00 46 1020.1
20260903203716 36 218 3.2 4.8 0.00 0.00 0.00 48 1020.1
20260903203217 36 179 4.8 4.8 0.00 0.00 0.00 48 1020.1
20260903202656 36 179 4.8 6.4 0.00 0.00 0.00 48 1020.2
20260903202153 36 179 4.8 9.7 0.00 0.00 0.00 48 1020.2
20260903201639 36 234 4.8 9.7 0.00 0.00 0.00 49 1020.2
20260903201139 35 186 4.8 9.7 0.00 0.00 0.00 48 1020.3
20260903200638 35 198 3.2 8.0 0.00 0.00 0.00 49 1020.3
20260903200139 35 197 3.2 8.0 0.00 0.00 0.00 48 1020.3
20260903195903 35 76 3.2 8.0 0.00 0.00 0.00 49 1020.5
20260903195142 35 6 3.2 8.0 0.00 0.00 0.00 47 1020.5
20260903194637 35 9 3.2 8.0 0.00 0.00 0.00 48 1020.5
20260903194620 35 179 3.2 8.0 0.00 0.00 0.00 49 1020.6
20260903193857 35 225 3.2 8.0 0.00 0.00 0.00 51 1020.6
20260903193136 35 177 3.2 8.0 0.00 0.00 0.00 50 1020.6
20260903192636 35 340 3.2 8.0 0.00 0.00 0.00 48 1020.9
20260903192135 35 108 3.2 6.4 0.00 0.00 0.00 48 1020.9
20260903191630 35 194 3.2 8.0 0.00 0.00 0.00 48 1020.9
20260903191131 35 136 3.2 8.0 0.00 0.00 0.00 49 1021.0
20260903190629 35 254 4.8 8.0 0.00 0.00 0.00 51 1021.0
20260903190128 35 269 4.8 8.0 0.00 0.00 0.00 48 1021.0
20260903185628 35 201 4.8 11.3 0.00 0.00 0.00 49 1021.1
20260903185347 35 236 4.8 11.3 0.00 0.00 0.00 49 1021.1
20260903184619 35 208 4.8 11.3 0.00 0.00 0.00 51 1021.1
20260903184112 35 205 3.2 11.3 0.00 0.00 0.00 50 1021.4
20260903183613 34 213 3.2 11.3 0.00 0.00 0.00 52 1021.4
20260903183117 34 256 3.2 8.0 0.00 0.00 0.00 54 1021.4
20260903182837 34 176 3.2 8.0 0.00 0.00 0.00 53 1021.6
20260903182110 33 194 3.2 6.4 0.00 0.00 0.00 55 1021.6
20260903181608 33 197 3.2 8.0 0.00 0.00 0.00 55 1021.6
20260903181106 33 199 3.2 8.0 0.00 0.00 0.00 53 1021.7
20260903180605 33 253 3.2 6.4 0.00 0.00 0.00 55 1021.7
20260903180108 32 73 3.2 6.4 0.00 0.00 0.00 55 1021.7
20260903175606 32 10 3.2 6.4 0.00 0.00 0.00 55 1021.9
20260903175105 32 9 1.6 6.4 0.00 0.00 0.00 55 1021.9
20260903174606 32 9 1.6 6.4 0.00 0.00 0.00 54 1021.9
20260903174328 32 161 3.2 4.8 0.00 0.00 0.00 56 1022.1
20260903173606 32 72 3.2 8.0 0.00 0.00 0.00 55 1022.1
20260903173102 32 76 3.2 8.0 0.00 0.00 0.00 55 1022.1
20260903172600 32 134 3.2 8.0 0.00 0.00 0.00 57 1022.2
20260903172100 32 73 3.2 8.0 0.00 0.00 0.00 56 1022.2
20260903171556 32 181 3.2 8.0 0.00 0.00 0.00 59 1022.2
20260903171318 32 57 4.8 8.0 0.00 0.00 0.00 59 1022.4
20260903170546 31 121 4.8 11.3 0.00 0.00 0.00 60 1022.4
20260903170046 31 71 3.2 11.3 0.00 0.00 0.00 60 1022.4
20260903165545 31 71 3.2 6.4 0.00 0.00 0.00 60 1022.5
20260903165046 31 32 3.2 6.4 0.00 0.00 0.00 62 1022.5
20260903164546 31 72 3.2 6.4 0.00 0.00 0.00 62 1022.5
20260903164040 31 1 3.2 6.4 0.00 0.00 0.00 61 1022.7
20260903163540 31 53 3.2 6.4 0.00 0.00 0.00 65 1022.7
20260903163526 31 197 3.2 6.4 0.00 0.00 0.00 64 1022.7
20260903162540 31 218 3.2 6.4 0.00 0.00 0.00 66 1022.8
20260903162041 30 70 3.2 6.4 0.00 0.00 0.00 66 1022.8
20260903161541 30 56 3.2 6.4 0.00 0.00 0.00 67 1022.8
20260903161040 30 62 3.2 8.0 0.00 0.00 0.00 66 1022.9
20260903160800 30 72 3.2 8.0 0.00 0.00 0.00 65 1022.9
20260903160031 30 187 3.2 4.8 0.00 0.00 0.00 69 1022.9
20260903160006 29 72 3.2 3.2 0.00 0.00 0.00 71 1022.9
20260903154952 29 72 3.2 3.2 0.00 0.00 0.00 71 1022.9
20260903154415 29 72 3.2 6.4 0.00 0.00 0.00 71 1022.9
20260903153843 29 64 3.2 6.4 0.00 0.00 0.00 70 1023.0
20260903153344 29 56 3.2 6.4 0.00 0.00 0.00 70 1023.0
20260903152834 28 78 3.2 3.2 0.00 0.00 0.00 74 1023.0
20260903152605 28 78 3.2 4.8 0.00 0.00 0.00 74 1023.1
20260903152038 28 78 3.2 6.4 0.00 0.00 0.00 74 1023.1
20260903151310 28 172 3.2 6.4 0.00 0.00 0.00 73 1023.1
20260903150805 28 64 3.2 6.4 0.00 0.00 0.00 74 1023.1
20260903150305 28 113 3.2 6.4 0.00 0.00 0.00 75 1023.1
20260903145805 27 116 3.2 6.4 0.00 0.00 0.00 77 1023.1
20260903145308 27 87 3.2 6.4 0.00 0.00 0.00 77 1023.0
20260903144808 27 68 3.2 6.4 0.00 0.00 0.00 78 1023.0
20260903144305 27 84 3.2 8.0 0.00 0.00 0.00 78 1023.0
20260903144021 27 72 3.2 8.0 0.00 0.00 0.00 79 1023.1
20260903143520 27 60 3.2 8.0 0.00 0.00 0.00 81 1023.1
20260903143019 26 356 3.2 8.0 0.00 0.00 0.00 81 1023.1
20260903142248 26 69 3.2 8.0 0.00 0.00 0.00 82 1023.0
20260903142238 26 72 3.2 8.0 0.00 0.00 0.00 82 1023.0
20260903141728 26 84 3.2 6.4 0.00 0.00 0.00 84 1023.0
20260903140745 26 63 3.2 6.4 0.00 0.00 0.00 85 1023.1
20260903140245 26 71 3.2 6.4 0.00 0.00 0.00 86 1023.1
20260903135748 25 70 3.2 6.4 0.00 0.00 0.00 87 1023.1
20260903135246 25 71 3.2 6.4 0.00 0.00 0.00 87 1023.1
20260903134737 25 71 3.2 6.4 0.00 0.00 0.00 88 1023.1
20260903134238 24 48 4.8 4.8 0.00 0.00 0.00 89 1023.1
20260903133934 24 48 4.8 4.8 0.00 0.00 0.00 89 1023.1
20260903133213 24 48 4.8 6.4 0.00 0.00 0.00 89 1023.1
20260903132914 24 16 4.8 6.4 0.00 0.00 0.00 90 1023.4
20260903132145 24 65 4.8 6.4 0.00 0.00 0.00 90 1023.4
20260903131911 24 27 3.2 6.4 0.00 0.00 0.00 91 1023.4
20260903131145 23 71 3.2 6.4 0.00 0.00 0.00 92 1023.4
20260903130646 23 69 3.2 6.4 0.00 0.00 0.00 93 1023.4
20260903130146 23 0 3.2 6.4 0.00 0.00 0.00 93 1023.4
20260903125646 23 48 3.2 6.4 0.00 0.00 0.00 93 1023.4
20260903125145 23 63 3.2 6.4 0.00 0.00 0.00 94 1023.4
20260903124645 23 17 3.2 6.4 0.00 0.00 0.00 94 1023.4
20260903124146 23 7 3.2 6.4 0.00 0.00 0.00 95 1023.4
20260903124127 22 60 3.2 8.0 0.00 0.00 0.00 96 1023.4
20260903123142 22 65 3.2 8.0 0.00 0.00 0.00 96 1023.4
20260903122643 22 39 3.2 6.4 0.00 0.00 0.00 97 1023.4
20260903122140 22 62 3.2 6.4 0.00 0.00 0.00 97 1023.4
20260903121640 22 64 3.2 6.4 0.00 0.00 0.00 98 1023.4
20260903121138 22 58 3.2 6.4 0.00 0.00 0.00 98 1023.1
20260903120638 22 59 3.2 6.4 0.00 0.00 0.00 98 1023.1
20260903120134 22 4 3.2 6.4 0.00 0.00 0.00 99 1023.1
20260903115625 21 2 4.8 8.0 0.00 0.00 0.00 98 1023.0
20260903115120 21 7 4.8 8.0 0.00 0.00 0.00 98 1023.0
20260903114620 21 13 4.8 8.0 0.00 0.00 0.00 98 1023.0
20260903114117 21 354 6.4 9.7 0.00 0.00 0.00 98 1022.9
20260903113618 21 11 6.4 9.7 0.00 0.00 0.00 98 1022.9
20260903113118 21 3 6.4 8.0 0.00 0.00 0.00 98 1022.9
20260903112618 21 359 4.8 8.0 0.00 0.00 0.00 98 1022.6
20260903112118 21 10 4.8 8.0 0.00 0.00 0.00 98 1022.6
20260903111615 21 12 3.2 8.0 0.00 0.00 0.00 98 1022.6
20260903111334 21 15 4.8 6.4 0.00 0.00 0.00 98 1022.4
20260903110615 21 10 4.8 8.0 0.00 0.00 0.00 98 1022.4
20260903110115 21 1 3.2 8.0 0.00 0.00 0.00 97 1022.4
20260903105613 21 6 3.2 6.4 0.00 0.00 0.00 97 1022.3
20260903105313 22 18 4.8 6.4 0.00 0.00 0.00 97 1022.3
20260903105154 22 21 4.8 6.4 0.00 0.00 0.00 97 1022.3
20260903104112 22 2 4.8 8.0 0.00 0.00 0.00 96 1022.3
20260903103610 22 19 4.8 8.0 0.00 0.00 0.00 96 1022.3
20260903103336 22 22 3.2 6.4 0.00 0.00 0.00 96 1022.3
20260903102555 22 9 3.2 6.4 0.00 0.00 0.00 96 1022.2
20260903102048 22 24 3.2 6.4 0.00 0.00 0.00 96 1022.2
20260903101806 22 45 3.2 6.4 0.00 0.00 0.00 96 1022.2
20260903101040 22 50 3.2 4.8 0.00 0.00 0.00 96 1022.2
20260903100759 22 51 3.2 6.4 0.00 0.00 0.00 96 1022.2
20260903100041 22 66 3.2 8.0 0.00 0.00 0.00 96 1022.2
20260903095802 22 68 3.2 8.0 0.00 0.00 0.00 96 1022.1
20260903095035 22 28 3.2 8.0 0.00 0.00 0.00 96 1022.1
20260903094802 22 65 3.2 6.4 0.00 0.00 0.00 97 1022.1
20260903094258 22 42 3.2 6.4 0.00 0.00 0.00 97 1022.0
20260903093753 22 60 3.2 4.8 0.00 0.00 0.00 97 1022.0
20260903093032 22 59 1.6 4.8 0.00 0.00 0.00 97 1022.0
20260903092532 22 17 1.6 4.8 0.00 0.00 0.00 97 1022.0
20260903092033 22 17 1.6 4.8 0.00 0.00 0.00 97 1022.0
20260903091532 22 17 1.6 3.2 0.00 0.00 0.00 97 1022.0
20260903091032 22 17 1.6 3.2 0.00 0.00 0.00 97 1022.0
20260903090532 22 17 1.6 3.2 0.00 0.00 0.00 97 1022.0
20260903090031 22 18 0.0 3.2 0.00 0.00 0.00 97 1022.0
20260903085513 22 18 0.0 3.2 0.00 0.00 0.00 97 1021.9
20260903085013 22 11 3.2 3.2 0.00 0.00 0.00 96 1021.9
20260903084510 22 7 3.2 4.8 0.00 0.00 0.00 96 1021.9
20260903083950 22 7 3.2 8.0 0.00 0.00 0.00 96 1021.8
20260903083452 22 18 3.2 8.0 0.00 0.00 0.00 96 1021.8
20260903082940 22 13 3.2 8.0 0.00 0.00 0.00 96 1021.8
20260903082440 22 3 3.2 8.0 0.00 0.00 0.00 96 1021.7
20260903081937 22 14 3.2 8.0 0.00 0.00 0.00 96 1021.7
20260903081641 22 11 4.8 6.4 0.00 0.00 0.00 97 1021.8
20260903081524 22 23 3.2 8.0 0.00 0.00 0.00 96 1021.7
20260903080433 22 14 4.8 8.0 0.00 0.00 0.00 96 1021.8
20260903075925 22 6 4.8 8.0 0.00 0.00 0.00 96 1021.8
20260903075425 22 358 4.8 8.0 0.00 0.00 0.00 96 1021.8
20260903074925 22 353 4.8 6.4 0.00 0.00 0.00 96 1021.8
20260903074422 23 354 4.8 6.4 0.00 0.00 0.00 96 1021.8
20260903074141 23 10 4.8 8.0 0.00 0.00 0.00 96 1021.8
20260903073425 23 14 4.8 8.0 0.00 0.00 0.00 96 1021.8
20260903073138 23 2 3.2 8.0 0.00 0.00 0.00 96 1021.8
20260903072420 23 355 3.2 6.4 0.00 0.00 0.00 96 1021.8
20260903071920 23 12 3.2 4.8 0.00 0.00 0.00 96 1021.8
20260903071420 23 12 3.2 4.8 0.00 0.00 0.00 96 1021.8
20260903070923 23 12 4.8 4.8 0.00 0.00 0.00 95 1021.8
20260903070418 23 7 4.8 8.0 0.00 0.00 0.00 95 1021.8
20260903065915 23 0 4.8 8.0 0.00 0.00 0.00 95 1021.8
20260903065629 23 16 4.8 6.4 0.00 0.00 0.00 95 1021.8
20260903064907 23 359 3.2 6.4 0.00 0.00 0.00 95 1021.8
20260903064405 23 359 3.2 6.4 0.00 0.00 0.00 95 1021.8
20260903064122 23 357 4.8 6.4 0.00 0.00 0.00 95 1021.9
20260903063401 23 7 4.8 8.0 0.00 0.00 0.00 95 1021.9
20260903062857 23 7 4.8 8.0 0.00 0.00 0.00 95 1021.9
20260903062357 23 357 4.8 8.0 0.00 0.00 0.00 95 1021.9
20260903061857 23 347 4.8 8.0 0.00 0.00 0.00 94 1021.9
20260903061843 23 8 4.8 6.4 0.00 0.00 0.00 94 1021.9
20260903061115 23 8 3.2 6.4 0.00 0.00 0.00 94 1021.9
20260903060358 23 5 3.2 8.0 0.00 0.00 0.00 94 1021.9
20260903055858 23 9 3.2 8.0 0.00 0.00 0.00 94 1021.9
20260903055352 23 16 3.2 4.8 0.00 0.00 0.00 94 1021.9
20260903054845 23 17 3.2 4.8 0.00 0.00 0.00 94 1021.9
20260903054345 24 17 3.2 4.8 0.00 0.00 0.00 93 1021.9
20260903053845 24 17 3.2 4.8 0.00 0.00 0.00 93 1021.9
20260903053348 24 13 3.2 6.4 0.00 0.00 0.00 93 1021.9
20260903052838 24 13 4.8 6.4 0.00 0.00 0.00 93 1021.9
20260903052332 24 14 4.8 8.0 0.00 0.00 0.00 93 1022.0
20260903051832 24 341 4.8 8.0 0.00 0.00 0.00 93 1022.0
20260903051556 24 17 4.8 6.4 0.00 0.00 0.00 93 1022.0
20260903050830 24 14 4.8 8.0 0.00 0.00 0.00 92 1022.1
20260903050325 24 18 4.8 8.0 0.00 0.00 0.00 92 1022.1
20260903045828 24 13 6.4 8.0 0.00 0.00 0.00 92 1022.1
20260903045542 24 21 6.4 8.0 0.00 0.00 0.00 92 1022.0
20260903045046 24 6 6.4 8.0 0.00 0.00 0.00 92 1022.0
20260903044732 24 358 6.4 8.0 0.00 0.00 0.00 92 1022.0
20260903043755 25 334 4.8 6.4 0.00 0.00 0.00 91 1022.0
20260903043243 25 334 4.8 9.7 0.00 0.00 0.00 91 1022.0
20260903042732 25 334 4.8 9.7 0.00 0.00 0.00 91 1022.2
20260903042445 25 18 4.8 8.0 0.00 0.00 0.00 91 1022.2
20260903041725 25 6 6.4 9.7 0.00 0.00 0.00 91 1022.2
20260903041225 25 11 6.4 9.7 0.00 0.00 0.00 91 1022.2
20260903041211 25 13 6.4 8.0 0.00 0.00 0.00 90 1022.2
20260903040215 25 349 6.4 9.7 0.00 0.00 0.00 90 1022.2
20260903035715 25 18 6.4 9.7 0.00 0.00 0.00 90 1022.2
20260903035215 25 11 6.4 9.7 0.00 0.00 0.00 90 1022.2
20260903034715 25 25 4.8 9.7 0.00 0.00 0.00 90 1022.2
20260903034213 25 358 4.8 8.0 0.00 0.00 0.00 90 1022.3
20260903033713 25 4 3.2 8.0 0.00 0.00 0.00 90 1022.3
20260903033212 25 24 3.2 6.4 0.00 0.00 0.00 89 1022.3
20260903032710 25 0 3.2 6.4 0.00 0.00 0.00 89 1022.3
20260903032424 25 5 3.2 4.8 0.00 0.00 0.00 88 1022.3
20260903031701 25 5 3.2 4.8 0.00 0.00 0.00 88 1022.3
20260903031158 25 5 3.2 4.8 0.00 0.00 0.00 88 1022.2
20260903030628 25 4 3.2 6.4 0.00 0.00 0.00 88 1022.2
20260903030128 26 17 3.2 6.4 0.00 0.00 0.00 88 1022.2
20260903025627 26 9 1.6 3.2 0.00 0.00 0.00 86 1022.2
20260903025123 26 9 1.6 3.2 0.00 0.00 0.00 86 1022.2
20260903024619 26 9 4.8 3.2 0.00 0.00 0.00 84 1022.2
20260903024115 26 9 4.8 4.8 0.00 0.00 0.00 84 1022.2
20260903023617 26 9 4.8 6.4 0.00 0.00 0.00 84 1022.2
20260903023045 26 8 0.0 6.4 0.00 0.00 0.00 84 1022.2
20260903023027 26 1 0.0 6.4 0.00 0.00 0.00 84 1022.1
20260903022045 26 16 3.2 4.8 0.00 0.00 0.00 83 1022.1
20260903021805 27 16 3.2 4.8 0.00 0.00 0.00 81 1022.1
20260903021040 27 16 3.2 6.4 0.00 0.00 0.00 81 1022.1
20260903020515 27 16 3.2 6.4 0.00 0.00 0.00 81 1022.1
20260903020014 27 355 4.8 6.4 0.00 0.00 0.00 81 1022.1
20260903015737 27 355 4.8 6.4 0.00 0.00 0.00 80 1022.1
20260903015005 27 344 3.2 6.4 0.00 0.00 0.00 80 1022.1
20260903014502 27 355 3.2 6.4 0.00 0.00 0.00 79 1022.1
20260903014000 27 356 3.2 6.4 0.00 0.00 0.00 78 1022.1
20260903013721 27 356 3.2 4.8 0.00 0.00 0.00 78 1022.1
20260903013215 27 356 0.0 6.4 0.00 0.00 0.00 79 1022.1
20260903012456 27 357 0.0 6.4 0.00 0.00 0.00 78 1021.8
20260903011954 27 357 3.2 3.2 0.00 0.00 0.00 77 1021.8
20260903011940 27 356 3.2 4.8 0.00 0.00 0.00 77 1021.8
20260903010947 28 356 0.0 4.8 0.00 0.00 0.00 77 1021.6
20260903010451 28 357 0.0 3.2 0.00 0.00 0.00 77 1021.6
20260903005948 28 357 1.6 3.2 0.00 0.00 0.00 76 1021.6
20260903005447 28 357 1.6 3.2 0.00 0.00 0.00 75 1021.6
20260903004947 28 357 3.2 3.2 0.00 0.00 0.00 75 1021.6
20260903004445 28 356 3.2 4.8 0.00 0.00 0.00 74 1021.6
20260903003942 28 357 3.2 4.8 0.00 0.00 0.00 74 1021.4
20260903003440 29 357 4.8 4.8 0.00 0.00 0.00 71 1021.4
20260903002927 29 357 4.8 6.4 0.00 0.00 0.00 71 1021.4
20260903002419 29 357 4.8 6.4 0.00 0.00 0.00 71 1021.3
20260903001922 29 358 3.2 6.4 0.00 0.00 0.00 70 1021.3
20260903001415 30 358 3.2 6.4 0.00 0.00 0.00 69 1021.3
20260903001122 30 358 3.2 6.4 0.00 0.00 0.00 66 1021.3
20260903001010 30 358 3.2 6.4 0.00 0.00 0.00 68 1021.3
20260902235915 30 358 3.2 6.4 0.00 0.00 0.00 65 1021.3
20260902235415 31 358 3.2 4.8 0.00 0.00 0.00 64 1021.4
20260902234912 31 358 3.2 4.8 0.00 0.00 0.00 63 1021.4
20260902234406 33 358 1.6 3.2 0.00 0.00 0.00 56 1021.4
20260902233855 33 358 1.6 3.2 0.00 0.00 0.00 56 1021.4
20260902233350 33 358 1.6 4.8 0.00 0.00 0.00 56 1021.4
20260902232829 33 358 1.6 4.8 0.00 0.00 0.00 57 1021.4
20260902232326 33 358 1.6 3.2 0.00 0.00 0.00 54 1021.4
20260902232035 33 358 3.2 4.8 0.00 0.00 0.00 54 1021.4
20260902231305 33 358 3.2 4.8 0.00 0.00 0.00 52 1021.4
20260902230754 34 358 3.2 4.8 0.00 0.00 0.00 50 1021.4
20260902230247 34 358 3.2 4.8 0.00 0.00 0.00 50 1021.4
20260902225747 35 358 1.6 4.8 0.00 0.00 0.00 49 1021.4
20260902225245 35 358 1.6 4.8 0.00 0.00 0.00 49 1021.4
20260902224727 35 4 3.2 4.8 0.00 0.00 0.00 49 1021.4
20260902224451 35 4 3.2 4.8 0.00 0.00 0.00 49 1021.5
20260902223946 35 4 3.2 4.8 0.00 0.00 0.00 48 1021.5
20260902223224 35 4 3.2 4.8 0.00 0.00 0.00 48 1021.5
20260902222728 35 7 3.2 4.8 0.00 0.00 0.00 49 1021.5
20260902222212 35 7 3.2 4.8 0.00 0.00 0.00 47 1021.5
20260902221709 35 328 1.6 4.8 0.00 0.00 0.00 47 1021.5
20260902221210 36 309 1.6 4.8 0.00 0.00 0.00 47 1021.6
20260902220935 36 202 1.6 4.8 0.00 0.00 0.00 47 1021.6
20260902220210 36 203 1.6 4.8 0.00 0.00 0.00 47 1021.6
20260902215705 36 203 3.2 4.8 0.00 0.00 0.00 48 1021.6
20260902215419 36 198 3.2 4.8 0.00 0.00 0.00 46 1021.6
20260902214657 35 203 3.2 6.4 0.00 0.00 0.00 47 1021.6